Content
SEND FEEDBACK

Daily
Averages
Monthly
Summary
United States of America

CLINTONVILLE, WISCONSIN


Home > North America > United States > Wisconsin
Elevation: 828 feet     Latitude: 44 36N     Longitude: 088 44W

WEATHER
 
SELECT A DAY
Number of Records: 134,474;   Date Range: 10/21/08 - 7/27/14
 
SHARE

PRINT THIS DATA

[ ← Previous Day ]
WEATHER ALMANAC - FEBRUARY 13, 2013
[ Next Day → ]
[ °C ]   °F
Weather ElementAverageHighLow
Temperature29.6 °F35.6 °F (2:15 pm)21.2 °F (3:15 am)
Dewpoint24 °F28.4 °F (7:35 pm)19.4 °F (12:35 am)
Humidity80.3 %93 % (3:15 am)65 % (2:15 pm)
Barometer29.68 in29.78 in (12:35 am)29.64 in (3:55 pm)
Wind Speed3.8 mph6.9 mph (5:35 am)
Weather ElementAverage
Visibility9.1 mi
Wind DirectionSSW (190.6 °)

Weather ElementTotal
Precipitation---
Heating Degree Days36.6 (Base 65)
Averaged from 71 records on February 13, 2013
WEATHER CONDITIONS BREAKOUT
WIND DIRECTION BREAKOUT
WEATHER BY HOUR - FEBRUARY 13, 2013
[ °C ]   °F
Local TimeTemperatureDewpointHumidityBarometerVisibilityWind DirectionWind SpeedGust SpeedPrecipitationEventsConditions
12:35 AM23.0 °F19.4 °F86 %29.78 in10.0 miSW (230°)3.5 mphClear
12:55 AM23.0 °F19.4 °F86 %29.77 in10.0 miSW (220°)4.6 mphClear
1:15 AM23.0 °F19.4 °F86 %29.77 in10.0 miCalmClear
1:35 AM23.0 °F19.4 °F86 %29.77 in10.0 miSW (230°)3.5 mphClear
1:55 AM23.0 °F19.4 °F86 %29.76 in10.0 miWSW (240°)3.5 mphClear
2:15 AM23.0 °F19.4 °F86 %29.75 in10.0 miSW (220°)3.5 mphClear
2:35 AM23.0 °F19.4 °F86 %29.75 in10.0 miSW (220°)4.6 mphClear
2:55 AM23.0 °F19.4 °F86 %29.75 in10.0 miSW (220°)3.5 mphClear
3:15 AM21.2 °F19.4 °F93 %29.74 in10.0 miSSW (210°)3.5 mphClear
3:35 AM21.2 °F19.4 °F93 %29.74 in10.0 miSSW (210°)3.5 mphClear
3:55 AM21.2 °F19.4 °F93 %29.73 in7.0 miSW (220°)4.6 mphScattered Clouds
4:15 AM21.2 °F19.4 °F93 %29.72 in7.0 miSW (230°)4.6 mphScattered Clouds
4:35 AM21.2 °F19.4 °F93 %29.72 in7.0 miSW (220°)4.6 mphClear
4:55 AM23.0 °F19.4 °F86 %29.72 in7.0 miSW (230°)4.6 mphClear
5:15 AM23.0 °F21.2 °F93 %29.71 in7.0 miSW (230°)5.8 mphClear
5:35 AM23.0 °F21.2 °F93 %29.71 in7.0 miWSW (240°)6.9 mphClear
5:55 AM23.0 °F21.2 °F93 %29.71 in7.0 miSW (230°)6.9 mphMostly Cloudy
6:15 AM23.0 °F21.2 °F93 %29.71 in7.0 miSW (230°)4.6 mphOvercast
6:35 AM23.0 °F21.2 °F93 %29.71 in7.0 miSW (230°)5.8 mphOvercast
6:55 AM23.0 °F21.2 °F93 %29.71 in7.0 miSW (220°)3.5 mphOvercast
7:15 AM23.0 °F21.2 °F93 %29.71 in7.0 miSW (230°)4.6 mphOvercast
7:35 AM23.0 °F21.2 °F93 %29.70 in5.0 miSW (230°)4.6 mphOvercast
7:55 AM24.8 °F21.2 °F86 %29.70 in7.0 miSW (230°)5.8 mphOvercast
8:15 AM24.8 °F21.2 °F86 %29.70 in7.0 miSW (230°)3.5 mphOvercast
8:35 AM26.6 °F21.2 °F80 %29.70 in7.0 miWSW (240°)5.8 mphOvercast
8:55 AM26.6 °F21.2 °F80 %29.69 in7.0 miSW (230°)5.8 mphMostly Cloudy
9:15 AM26.6 °F23.0 °F86 %29.69 in7.0 miWSW (240°)3.5 mphScattered Clouds
9:35 AM28.4 °F23.0 °F80 %29.69 in7.0 miWSW (250°)5.8 mphMostly Cloudy
9:55 AM28.4 °F23.0 °F80 %29.69 in10.0 miWest (260°)4.6 mphScattered Clouds
10:15 AM30.2 °F23.0 °F75 %29.68 in10.0 miWest (260°)3.5 mphScattered Clouds
10:35 AM30.2 °F23.0 °F75 %29.68 in10.0 miWest (260°)4.6 mphMostly Cloudy
10:55 AM30.2 °F23.0 °F75 %29.68 in10.0 miSW (230°)4.6 mphScattered Clouds
11:15 AM30.2 °F23.0 °F75 %29.68 in10.0 miSW (220°)3.5 mphScattered Clouds
11:35 AM32.0 °F23.0 °F69 %29.68 in10.0 miWSW (250°)4.6 mphScattered Clouds
11:55 AM32.0 °F23.0 °F69 %29.67 in10.0 miSouth (190°)3.5 mphScattered Clouds
12:15 PM32.0 °F24.8 °F75 %29.66 in10.0 miSSW (200°)3.5 mphScattered Clouds
12:35 PM32.0 °F24.8 °F75 %29.66 in10.0 miSouth (180°)5.8 mphScattered Clouds
12:55 PM32.0 °F24.8 °F75 %29.66 in10.0 miWSW (240°)4.6 mphScattered Clouds
1:15 PM33.8 °F24.8 °F70 %29.66 in10.0 miSW (220°)5.8 mphScattered Clouds
1:35 PM33.8 °F24.8 °F70 %29.65 in10.0 miSW (230°)5.8 mphOvercast
1:55 PM33.8 °F26.6 °F75 %29.65 in10.0 miWSW (240°)4.6 mphOvercast
2:15 PM35.6 °F24.8 °F65 %29.65 in10.0 miWSW (250°)4.6 mphOvercast
2:35 PM35.6 °F26.6 °F70 %29.65 in10.0 miSW (230°)5.8 mphMostly Cloudy
2:55 PM35.6 °F26.6 °F70 %29.65 in10.0 miSW (230°)5.8 mphMostly Cloudy
3:15 PM35.6 °F26.6 °F70 %29.65 in10.0 miSW (230°)5.8 mphMostly Cloudy
3:35 PM35.6 °F26.6 °F70 %29.65 in10.0 miSW (230°)4.6 mphMostly Cloudy
3:55 PM35.6 °F26.6 °F70 %29.64 in10.0 miSSW (210°)4.6 mphOvercast
4:15 PM35.6 °F26.6 °F70 %29.64 in10.0 miSW (230°)3.5 mphOvercast
4:35 PM35.6 °F26.6 °F70 %29.64 in10.0 miSW (220°)3.5 mphOvercast
4:55 PM35.6 °F26.6 °F70 %29.64 in10.0 miSW (220°)3.5 mphOvercast
5:15 PM35.6 °F26.6 °F70 %29.65 in10.0 miSW (220°)4.6 mphOvercast
5:35 PM35.6 °F26.6 °F70 %29.65 in10.0 miSW (220°)5.8 mphOvercast
5:55 PM35.6 °F26.6 °F70 %29.65 in10.0 miSW (230°)3.5 mphOvercast
6:15 PM35.6 °F26.6 °F70 %29.65 in10.0 miSW (230°)5.8 mphOvercast
6:35 PM35.6 °F26.6 °F70 %29.65 in10.0 miSW (230°)4.6 mphMostly Cloudy
6:55 PM35.6 °F26.6 °F70 %29.66 in10.0 miSW (230°)5.8 mphMostly Cloudy
7:15 PM35.6 °F26.6 °F70 %29.66 in10.0 miWSW (250°)5.8 mphMostly Cloudy
7:35 PM35.6 °F28.4 °F75 %29.66 in10.0 miWSW (240°)4.6 mphOvercast
7:55 PM35.6 °F28.4 °F75 %29.65 in10.0 miWSW (240°)3.5 mphOvercast
8:15 PM35.6 °F28.4 °F75 %29.66 in10.0 miWSW (250°)3.5 mphMostly Cloudy
8:35 PM33.8 °F28.4 °F81 %29.65 in10.0 miCalmMostly Cloudy
8:55 PM33.8 °F28.4 °F81 %29.65 in10.0 miCalmScattered Clouds
9:15 PM32.0 °F28.4 °F87 %29.66 in10.0 miCalmMostly Cloudy
9:35 PM33.8 °F28.4 °F81 %29.65 in10.0 miCalmOvercast
9:55 PM33.8 °F28.4 °F81 %29.65 in10.0 miCalmOvercast
10:15 PM33.8 °F28.4 °F81 %29.65 in10.0 miCalmMostly Cloudy
10:35 PM33.8 °F28.4 °F81 %29.64 in10.0 miCalmMostly Cloudy
10:55 PM32.0 °F28.4 °F87 %29.64 in10.0 miCalmMostly Cloudy
11:15 PM32.0 °F28.4 °F87 %29.64 in10.0 miCalmMostly Cloudy
11:35 PM32.0 °F28.4 °F87 %29.64 in5.0 miCalmSnowLight Snow
11:55 PM32.0 °F28.4 °F87 %29.64 in7.0 miCalmSnowLight Snow
Hourly data recorded from KEZS, located miles away from Clintonville, Wisconsin







STORIES FROM OUR PARTNERS